Flag for U.S.A. Weather past 2 weeks in Lafayette, Indiana, U.S.A.

Now
64 °F

Light rain. Mostly cloudy.


Feels Like: 64 °F
Forecast: 58 / 73 °F
Wind: 14 mph from North

Location: Purdue University Airport

Current Time: Jul 7, 2015 at 4:06:48 PM

Latest Report: Jul 7, 2015 at 2:54 PM


Visibility: 7 mi

Pressure: 29.95 "Hg

Humidity: 90%

Dew point: 61 °F

Location of LafayetteLocation

Historic Weather in Lafayette — Graph

°F

Lafayette temperature yesterday

Maximum temperature yesterday: 84 °F (at 3:54 PM)
Minimum temperature yesterday: 63 °F (at 5:54 AM)
Average temperature yesterday: 75 °F

Past Weeks' High & Low Weather Summary

 TemperatureHumidityPressure
High84 °F (Jun 22, 3:54 PM)100% (Jun 25, 7:00 AM)30.18 "Hg (Jun 25, 7:00 AM)
Low53 °F (Jun 28, 3:54 AM)44% (Jul 5, 3:54 PM)29.77 "Hg (Jun 29, 5:54 AM)
Average69 °F79%29.93 "Hg
* Reported Jun 22 2:01 PM — Jul 7 2:54 PM, Lafayette, Weather by CustomWeather, © 2015

Note: Actual official high and low records may vary slightly from our data, if they occured in-between our weather recording intervals... More about our weather records

Advertising

Lafayette weather history for previous 24 hours

 ConditionsComfort  
Time TempWeatherWind HumidityBarometerVisibility
2:54 PM
Tue, Jul 7
64 °FLight rain. Mostly cloudy.14 mph90%29.95 "Hg7 mi
1:54 PM65 °FLight rain. Overcast.12 mph87%29.94 "Hg10 mi
12:54 PM65 °FFog.12 mph91%29.92 "Hg4 mi
11:54 AM64 °FLight rain. Fog.14 mph97%29.90 "Hg4 mi
10:54 AM73 °FLight rain. Partly sunny.3 mph94%29.88 "Hg7 mi
9:54 AM74 °FBroken clouds.3 mph94%29.86 "Hg10 mi
8:54 AM71 °FThundershowers. Scattered clouds.3 mph96%29.87 "Hg10 mi
8:03 AM71 °FLight rain. Fog.8 mph93%29.89 "Hg4 mi
7:54 AM71 °FLight rain. Fog.9 mph93%29.87 "Hg4 mi
6:54 AM76 °FOvercast.9 mph88%29.86 "Hg7 mi
5:54 AM76 °FOvercast.7 mph88%29.85 "Hg8 mi
4:54 AM76 °FOvercast.9 mph88%29.85 "Hg8 mi
3:54 AM75 °FPassing clouds.8 mph90%29.87 "Hg9 mi
2:54 AM75 °FClear.10 mph88%29.87 "Hg10 mi
1:54 AM75 °FClear.6 mph85%29.88 "Hg10 mi
12:54 AM75 °FClear.8 mph76%29.88 "Hg10 mi
11:54 PM
Mon, Jul 6
76 °FClear.7 mph80%29.90 "Hg10 mi
10:54 PM77 °FClear.6 mph82%29.91 "Hg10 mi
9:54 PM78 °FSunny.5 mph79%29.90 "Hg9 mi
8:54 PM80 °FSunny.6 mph71%29.89 "Hg10 mi
7:54 PM81 °FSunny.7 mph69%29.90 "Hg10 mi
6:54 PM83 °FSunny.7 mph68%29.91 "Hg9 mi
5:54 PM82 °FScattered clouds.9 mph67%29.93 "Hg8 mi
4:54 PM83 °FMostly cloudy.9 mph65%29.95 "Hg7 mi
Weather by CustomWeather, © 2015

See weather overviewHow to use our weather pages